This demonstration page uses our WeatherBlox Daily Observations layout. Learn more.

Left ArrowRight Arrow

Hourly Observations for July 3, 2018

Temp ( °F °C ) Dew Point ( °F °C ) Humidity (%) Winds ( mph kmh ) Pressure ( in mb ) Visibility ( mi km ) Precip ( " mm )
12:53 am 00:53 Clear 77 25 61 16.1 58 58 E 6 9 29.85 1011 10 16 0.00 0.00
1:53 am 01:53 Clear 75 23.9 61 16.1 62 62 NNE 6 9 29.85 1011 10 16 0.00 0.00
2:53 am 02:53 Clear 73 22.8 62 16.7 69 69 NE 5 7 29.84 1011 10 16 0.00 0.00
3:53 am 03:53 Clear 73 22.8 62 16.7 69 69 Calm 29.84 1010 10 16 0.00 0.00
4:53 am 04:53 Clear 71 21.7 61 16.1 71 71 NNE 6 9 29.84 1011 10 16 0.00 0.00
5:53 am 05:53 Clear 72 22.2 62 16.7 71 71 E 6 9 29.83 1010 10 16 0.00 0.00
6:53 am 06:53 Sunny 74 23.3 61 16.1 64 64 SE 12 19 29.84 1011 10 16 0.00 0.00
7:53 am 07:53 Sunny 75 23.9 61 16.1 62 62 SE 9 15 29.85 1011 10 16 0.00 0.00
8:53 am 08:53 Sunny 79 26.1 61 16.1 54 54 SSE 14 22 29.86 1011 10 16 0.00 0.00
9:53 am 09:53 Sunny 82 27.8 61 16.1 49 49 SSE 14 22 29.87 1012 10 16 0.00 0.00
10:53 am 10:53 Sunny 86 30 61 16.1 43 43 S 13 20 29.87 1011 10 16 0.00 0.00
11:53 am 11:53 Sunny 89 31.7 61 16.1 39 39 S 10 17 29.85 1011 10 16 0.00 0.00
12:53 pm 12:53 Sunny 92 33.3 60 15.6 34 34 S 8 13 29.84 1010 10 16 0.00 0.00
1:53 pm 13:53 Sunny 93 33.9 59 15 32 32 S 7 11 29.82 1010 10 16 0.00 0.00
2:53 pm 14:53 Sunny 97 36.1 58 14.4 27 27 S 12 19 29.79 1009 10 16 0.00 0.00
3:53 pm 15:53 Sunny 97 36.1 58 14.4 27 27 SSE 7 11 29.78 1008 10 16 0.00 0.00
4:53 pm 16:53 Sunny 98 36.7 58 14.4 26 26 SSE 12 19 29.76 1008 10 16 0.00 0.00
5:53 pm 17:53 Sunny 98 36.7 57 13.9 25 25 SSE 13 20 29.76 1008 10 16 0.00 0.00
6:53 pm 18:53 Sunny 94 34.4 56 13.3 28 28 S 16 26 29.76 1008 10 16 0.00 0.00
7:53 pm 19:53 Sunny 90 32.2 57 13.9 33 33 S 12 19 29.77 1008 10 16 0.00 0.00
8:53 pm 20:53 Sunny 89 31.7 54 12.2 30 30 S 7 11 29.77 1008 10 16 0.00 0.00
9:53 pm 21:53 Clear 85 29.4 55 12.8 36 36 E 5 7 29.79 1009 10 16 0.00 0.00
10:53 pm 22:53 Clear 84 28.9 56 13.3 38 38 ESE 5 7 29.82 1010 10 16 0.00 0.00
11:53 pm 23:53 Clear 83 28.3 57 13.9 41 41 SE 7 11 29.83 1010 10 16 0.00 0.00

Powered by AerisWeather